Location: The Saddle
(36.8333°N, 80.3417°W)
Time: 06:30:40
(UTC-05:00)

Vanguard 3 - Pass Details

Date: 12 February 2026
Orbit: 507 x 3205 km, 33.3° (Epoch: 5 March)

Event Time Altitude Azimuth Distance (km) Brightness Sun altitude
Rises 18:37:50 0° 246° (WSW) 4,172 12.7 -8.4°
Reaches altitude 10° 18:41:24 10° 241° (WSW) 2,794 11.2 -9.1°
Maximum altitude 18:47:17 44° 171° (S) 974 7.6 -10.3°
Enters shadow 18:50:42 14° 101° (E) 1,680 8.2 -11.0°
